[[{"header":{"parameterUnit":"m.s-1","parameterCategory":1,"la1":30.2991,"la2":30.254,"lo1":-89.0895,"lo2":-89.0444,"dy":0.0017,"dx":0.0017,"nx":28,"ny":28,"refTime":"2023-11-03T03:00:00:Z","depth":0,"parameterNumber":2,"parameterNumberName":"U-component_of_WINDS"},"data":[0,0,0,0,0,0,0,0,0,0,0,0,0,0,0,0,0,0,0,0,0,0,0,0,0,0,0,0,0,0,0,0,0,0,0,0,0,0,0,0,0,0,0,0,0,0,0,0,0,0,0,0,0,0,0,0,0,0,-0.2329,-0.2329,0,-0.2307,-0.2307,-0.2307,-0.2303,-0.2304,-0.2304,-0.2304,-0.228,-0.228,-0.2279,0,0,0,0,0,0,0,0,0,0,0,0,0,-0.2368,-0.2367,-0.2329,-0.2329,-0.2329,-0.2307,-0.2307,-0.2307,-0.2303,-0.2304,-0.2304,-0.2304,-0.2281,-0.228,-0.2279,0,0,0,0,0,0,0,0,0,0,0,0,0,-0.2349,-0.2367,-0.2329,-0.2324,-0.2324,-0.2307,-0.2307,-0.2307,-0.2303,-0.2304,-0.2304,-0.2304,-0.2281,-0.228,-0.2279,-0.2265,0,0,-0.2275,-0.2274,0,0,0,0,0,0,0,0,-0.235,-0.2348,-0.2325,-0.2325,-0.2324,-0.2308,-0.2312,-0.2293,-0.2303,-0.2311,-0.2304,-0.2304,-0.2289,-0.2287,-0.2283,-0.2264,-0.2263,-0.2275,-0.2274,-0.2273,-0.2273,0,0,0,0,0,0,0,-0.2352,-0.2349,-0.232,-0.2325,-0.2324,-0.2323,-0.2321,-0.2308,-0.2299,-0.231,-0.231,-0.2308,-0.2289,-0.2284,-0.2282,-0.2263,-0.2275,-0.2274,-0.2273,-0.2272,-0.2234,-0.2233,0,0,0,0,0,0,-0.2354,-0.235,-0.2321,-0.232,-0.2338,-0.2322,-0.232,-0.2313,-0.2299,-0.2297,-0.2307,-0.2308,-0.2286,-0.2284,-0.2281,-0.2266,-0.2273,-0.2272,-0.2272,-0.2234,-0.2234,-0.2233,0,0,0,0,0,0,-0.2355,-0.2351,-0.2322,-0.2335,-0.2331,-0.2321,-0.2314,-0.2312,-0.2307,-0.2297,-0.2295,-0.2304,-0.2286,-0.2283,-0.227,-0.2265,-0.2272,-0.2271,-0.2234,-0.2234,-0.2233,-0.2234,0,0,0,0,0,0,-0.2356,-0.2352,-0.2346,-0.2335,-0.233,-0.231,-0.2314,-0.2312,-0.2305,-0.2305,-0.2293,-0.2291,-0.2286,-0.2271,-0.2268,-0.2263,-0.227,-0.2235,-0.2234,-0.2234,-0.2234,-0.2233,-0.2232,0,0,0,0,0,-0.2357,-0.2346,-0.2346,-0.2342,-0.2323,-0.231,-0.2308,-0.2302,-0.2305,-0.23,-0.2293,-0.2291,-0.2266,-0.227,-0.2267,-0.2261,-0.2235,-0.2234,-0.2234,-0.2234,-0.2233,-0.2232,0,0,0,0,0,0,-0.2356,-0.2344,-0.2344,-0.2329,-0.2321,-0.231,-0.2302,-0.2301,-0.2292,-0.2292,-0.2286,-0.2283,-0.227,-0.2264,-0.2269,-0.2248,-0.2251,-0.2249,-0.2252,-0.2251,-0.2251,-0.2252,-0.2269,0,0,0,0,0,-0.2354,-0.2345,-0.2335,-0.2323,-0.2319,-0.2312,-0.2306,-0.2303,-0.2294,-0.229,-0.2282,-0.2274,-0.2264,-0.2257,-0.2247,-0.2233,-0.2231,-0.2228,-0.2227,-0.2227,-0.2225,-0.2219,-0.2218,-0.2231,-0.2231,-0.2231,0,0,-0.235,-0.2343,-0.2337,-0.2323,-0.2316,-0.2307,-0.2309,-0.2298,-0.2291,-0.2288,-0.2275,-0.227,-0.226,-0.2247,-0.224,-0.2241,-0.2222,-0.2226,-0.2226,-0.2225,-0.2218,-0.2217,-0.2216,-0.2231,-0.2231,-0.2231,0,0,-0.2338,-0.2331,-0.2321,-0.2315,-0.2305,-0.2301,-0.2298,-0.2288,-0.2284,-0.2272,-0.227,-0.2262,-0.2244,-0.2238,-0.2232,-0.222,-0.2219,-0.2217,-0.2213,-0.2207,-0.2206,-0.2205,-0.2202,-0.2201,-0.2216,-0.2216,-0.2216,0,-0.2334,-0.232,-0.2316,-0.2306,-0.23,-0.2298,-0.2289,-0.2282,-0.227,-0.2266,-0.2268,-0.2248,-0.224,-0.2226,-0.2224,-0.2219,-0.2217,-0.2218,-0.2207,-0.2206,-0.2205,-0.2202,-0.22,-0.2216,-0.2216,-0.2216,-0.2216,0,-0.2316,-0.2306,-0.2299,-0.2288,-0.2282,-0.2272,-0.2267,-0.2261,-0.2259,-0.2255,-0.2243,-0.2235,-0.2224,-0.2221,-0.2218,-0.2207,-0.2208,-0.2208,-0.221,-0.2204,-0.22,-0.2199,-0.2216,-0.2216,-0.2216,-0.2216,0,0,-0.23,-0.2289,-0.2287,-0.2283,-0.2273,-0.2266,-0.2256,-0.2247,-0.2242,-0.2234,-0.2227,-0.2214,-0.2215,-0.2208,-0.2205,-0.22,-0.2193,-0.2201,-0.2201,-0.22,-0.2181,-0.2181,-0.2179,-0.2192,-0.2192,-0.2191,-0.2182,0,-0.2287,-0.2271,-0.2268,-0.2254,-0.2246,-0.2245,-0.2238,-0.2231,-0.2227,-0.222,-0.2216,-0.2207,-0.2208,-0.2205,-0.22,-0.2195,-0.2189,-0.2195,-0.2185,-0.2185,-0.2188,-0.2177,-0.2176,-0.2168,-0.218,-0.218,-0.218,0,-0.2269,-0.2262,-0.2248,-0.2241,-0.2238,-0.2231,-0.2223,-0.2216,-0.2209,-0.2207,-0.2201,-0.2199,-0.219,-0.2194,-0.2182,-0.2187,-0.2183,-0.218,-0.2179,-0.2178,-0.2182,-0.2176,-0.2165,-0.2163,-0.2178,-0.2178,-0.2178,0,-0.2261,-0.2248,-0.2238,-0.2234,-0.2226,-0.2221,-0.2217,-0.2211,-0.2206,-0.2199,-0.2196,-0.2188,-0.2184,-0.2178,-0.2174,-0.2177,-0.2163,-0.2166,-0.2161,-0.2162,-0.2158,-0.2158,-0.2146,-0.2155,-0.2155,-0.2155,-0.2155,0,-0.2246,-0.2238,-0.2234,-0.2228,-0.2218,-0.2216,-0.2207,-0.2203,-0.2198,-0.2191,-0.219,-0.2184,-0.218,-0.2173,-0.217,-0.2162,-0.216,-0.2158,-0.2157,-0.2158,-0.2158,-0.2155,-0.2155,-0.2155,-0.2155,-0.2155,-0.2155,0,-0.2235,-0.2232,-0.2221,-0.2215,-0.2213,-0.2207,-0.2202,-0.2196,-0.2193,-0.2185,-0.2183,-0.2178,-0.2171,-0.2167,-0.2157,-0.2155,-0.2146,-0.2145,-0.2148,-0.2148,-0.2144,-0.2144,-0.2129,-0.2127,-0.2138,-0.2137,-0.2137,0,-0.2226,-0.2219,-0.2213,-0.2209,-0.2206,-0.2199,-0.2195,-0.2192,-0.2188,-0.2181,-0.2176,-0.2169,-0.2163,-0.2151,-0.2147,-0.214,-0.2139,-0.2135,-0.2138,-0.214,-0.214,-0.214,-0.214,-0.2134,-0.2134,-0.2134,-0.2134,0,-0.221,-0.221,-0.2204,-0.2198,-0.2193,-0.2188,-0.2183,-0.2179,-0.2176,-0.2171,-0.2164,-0.216,-0.2151,-0.2144,-0.2137,-0.2134,-0.2133,-0.2133,-0.2131,-0.2132,-0.2134,-0.2134,-0.2147,-0.2133,-0.2133,-0.2133,-0.2133,-0.2133,-0.22,-0.2195,-0.219,-0.2184,-0.2181,-0.2176,-0.2171,-0.2169,-0.2163,-0.2156,-0.2155,-0.2148,-0.2143,-0.2134,-0.213,-0.2125,-0.2126,-0.2123,-0.2123,-0.2122,-0.2123,-0.2135,-0.2123,-0.2123,-0.2123,-0.2123,-0.2123,0,-0.2185,-0.2183,-0.2177,-0.2171,-0.2166,-0.2168,-0.2163,-0.2159,-0.2152,-0.2148,-0.2143,-0.2136,-0.2129,-0.2126,-0.212,-0.2116,-0.2116,-0.2115,-0.2115,-0.2114,-0.2122,-0.2124,-0.2115,-0.2115,-0.2115,-0.2115,-0.2115,-0.2115,-0.2177,-0.2169,-0.2168,-0.2159,-0.2156,-0.215,-0.2147,-0.2143,-0.214,-0.2132,-0.2128,-0.2125,-0.2122,-0.2116,-0.211,-0.2109,-0.2107,-0.2106,-0.2105,-0.2112,-0.2113,-0.2114,-0.2116,-0.2106,-0.2106,-0.2098,-0.2098,-0.2098]},{"header":{"parameterUnit":"m.s-1","parameterCategory":1,"la1":30.2991,"la2":30.254,"lo1":-89.0895,"lo2":-89.0444,"dy":0.0017,"dx":0.0017,"nx":28,"ny":28,"refTime":"2023-11-03T03:00:00:Z","depth":0,"parameterNumber":3,"parameterNumberName":"V-component_of_WINDS"},"data":[0,0,0,0,0,0,0,0,0,0,0,0,0,0,0,0,0,0,0,0,0,0,0,0,0,0,0,0,0,0,0,0,0,0,0,0,0,0,0,0,0,0,0,0,0,0,0,0,0,0,0,0,0,0,0,0,0,0,0.6632,0.6632,0,0.6604,0.6604,0.6603,0.662,0.6621,0.6622,0.6622,0.6589,0.6588,0.6586,0,0,0,0,0,0,0,0,0,0,0,0,0,0.6696,0.6695,0.6632,0.6632,0.6632,0.6604,0.6604,0.6603,0.662,0.6621,0.6622,0.6623,0.659,0.6588,0.6586,0,0,0,0,0,0,0,0,0,0,0,0,0,0.6668,0.6695,0.6632,0.6637,0.6637,0.6604,0.6604,0.6603,0.662,0.6621,0.6622,0.6623,0.659,0.6588,0.6585,0.6545,0,0,0.6578,0.6577,0,0,0,0,0,0,0,0,0.667,0.6666,0.6636,0.6636,0.6636,0.6617,0.6614,0.6584,0.6619,0.6626,0.6623,0.6624,0.6597,0.6594,0.6586,0.6544,0.6542,0.6578,0.6576,0.6575,0.6574,0,0,0,0,0,0,0,0.6672,0.6667,0.6621,0.6636,0.6636,0.6639,0.6636,0.6608,0.6605,0.6626,0.6627,0.6623,0.6597,0.6588,0.6585,0.6542,0.6578,0.6576,0.6574,0.6573,0.6462,0.6461,0,0,0,0,0,0,0.6674,0.6669,0.6622,0.662,0.6657,0.6636,0.6633,0.6622,0.6605,0.6604,0.6622,0.6624,0.6592,0.6588,0.6584,0.6533,0.6575,0.6573,0.6571,0.6464,0.6462,0.646,0,0,0,0,0,0,0.6675,0.667,0.6623,0.6645,0.6639,0.6634,0.6621,0.6621,0.6612,0.6603,0.6602,0.6614,0.6593,0.6588,0.6555,0.6533,0.6572,0.6569,0.6465,0.6463,0.6461,0.6433,0,0,0,0,0,0,0.6677,0.667,0.6656,0.6644,0.6638,0.6595,0.662,0.6619,0.6608,0.661,0.6595,0.6593,0.6593,0.6558,0.6552,0.653,0.6567,0.6467,0.6464,0.6462,0.6436,0.6431,0.6426,0,0,0,0,0,0.6679,0.6649,0.6655,0.6649,0.662,0.6594,0.659,0.6592,0.6606,0.6591,0.6585,0.6594,0.6537,0.6555,0.6548,0.6525,0.6469,0.6465,0.6462,0.6439,0.6432,0.6426,0,0,0,0,0,0,0.6657,0.6648,0.6654,0.662,0.6608,0.6597,0.6578,0.6585,0.6567,0.657,0.6572,0.6568,0.6533,0.6526,0.6546,0.6484,0.6505,0.65,0.6489,0.6482,0.6477,0.6478,0.6565,0,0,0,0,0,0.6648,0.6629,0.6622,0.6592,0.6585,0.6583,0.6571,0.6574,0.6561,0.6555,0.6547,0.6533,0.6511,0.6497,0.6477,0.6436,0.6431,0.6417,0.6412,0.6407,0.6402,0.6377,0.6369,0.645,0.645,0.645,0,0,0.663,0.6622,0.661,0.6587,0.6578,0.6556,0.6578,0.6555,0.6538,0.6551,0.6519,0.6512,0.6496,0.6458,0.6441,0.6451,0.6379,0.6403,0.64,0.6397,0.6373,0.6365,0.6358,0.6447,0.6448,0.6448,0,0,0.6584,0.6578,0.655,0.6541,0.6527,0.6526,0.6519,0.6507,0.6503,0.6472,0.6481,0.646,0.6424,0.6411,0.64,0.6349,0.6355,0.6342,0.6313,0.6289,0.6282,0.6277,0.6255,0.6247,0.6338,0.6338,0.6338,0,0.6561,0.653,0.6535,0.651,0.6499,0.6512,0.6483,0.6473,0.6453,0.6444,0.6456,0.641,0.64,0.6358,0.6345,0.6337,0.6327,0.6342,0.6283,0.6277,0.6272,0.6251,0.6243,0.6336,0.6336,0.6336,0.6336,0,0.6502,0.648,0.646,0.644,0.6427,0.6401,0.64,0.6385,0.6389,0.6385,0.6351,0.634,0.6317,0.6308,0.6311,0.6265,0.6271,0.6284,0.6304,0.6263,0.6243,0.6235,0.6333,0.6334,0.6335,0.6335,0,0,0.6439,0.6424,0.6416,0.6406,0.6392,0.6374,0.6347,0.6325,0.6311,0.6297,0.6272,0.6242,0.6252,0.624,0.6242,0.622,0.6176,0.6235,0.6234,0.6221,0.612,0.6109,0.61,0.6182,0.618,0.6179,0.6121,0,0.639,0.6344,0.6347,0.6303,0.6281,0.6293,0.6269,0.6256,0.6252,0.6232,0.6227,0.6203,0.6221,0.6213,0.6193,0.6186,0.6155,0.619,0.6155,0.6154,0.6155,0.609,0.6078,0.6023,0.6113,0.6112,0.6111,0,0.6326,0.6309,0.6263,0.625,0.6241,0.622,0.6199,0.618,0.6165,0.6164,0.6149,0.6154,0.6125,0.6148,0.6106,0.613,0.6116,0.611,0.6108,0.6101,0.6127,0.6078,0.6006,0.5996,0.61,0.6101,0.6101,0,0.628,0.6247,0.6214,0.6206,0.6191,0.6175,0.6168,0.6155,0.6141,0.6123,0.6113,0.6091,0.6078,0.6061,0.6059,0.6077,0.6014,0.6039,0.6009,0.6009,0.5992,0.5993,0.5913,0.599,0.599,0.599,0.599,0,0.6222,0.6192,0.6193,0.6173,0.6139,0.6143,0.6109,0.6103,0.6091,0.6068,0.6078,0.6055,0.6056,0.6032,0.6031,0.5994,0.5989,0.5984,0.5983,0.5981,0.5981,0.5969,0.5972,0.5988,0.5988,0.5989,0.5989,0,0.6164,0.6164,0.6129,0.6118,0.6114,0.6089,0.6079,0.6058,0.6055,0.6026,0.6019,0.6013,0.5986,0.5984,0.5952,0.5951,0.5905,0.591,0.591,0.5909,0.5878,0.5879,0.5785,0.5771,0.586,0.586,0.5859,0,0.6126,0.6103,0.6089,0.6075,0.6067,0.6044,0.603,0.6033,0.6017,0.5998,0.5979,0.5953,0.5932,0.5888,0.588,0.5855,0.5857,0.5826,0.5853,0.5851,0.5852,0.5852,0.5848,0.5819,0.5818,0.5818,0.5817,0,0.6056,0.6056,0.6037,0.6016,0.5999,0.5982,0.5967,0.5954,0.5955,0.5937,0.591,0.5894,0.5862,0.5834,0.581,0.58,0.5807,0.5809,0.58,0.5795,0.5794,0.579,0.5891,0.581,0.5811,0.5811,0.5812,0.5812,0.6003,0.5983,0.5969,0.5946,0.5935,0.592,0.5899,0.5894,0.5872,0.5847,0.585,0.5819,0.5803,0.5771,0.5759,0.5733,0.5743,0.5732,0.5728,0.5724,0.5718,0.5802,0.5729,0.573,0.573,0.573,0.573,0,0.593,0.5923,0.5901,0.588,0.5861,0.5872,0.5855,0.5837,0.5811,0.5796,0.5775,0.5742,0.5716,0.5706,0.568,0.5661,0.5663,0.5653,0.5652,0.5649,0.5713,0.5722,0.5651,0.5651,0.5651,0.5652,0.5652,0.5652,0.589,0.5854,0.5854,0.5812,0.5804,0.5774,0.5763,0.5749,0.5737,0.57,0.5678,0.5673,0.5659,0.5632,0.5607,0.5604,0.5592,0.558,0.5579,0.5638,0.5645,0.5653,0.566,0.5579,0.5579,0.5517,0.5516,0.5516]}]]